Meteo Giornale » Osservazioni meteo Stati Uniti (USA) » Craig Fld-Selma
ore: 22:40 - Osservazioni Meteo Craig Fld-Selma
Lat. 32° 21' N Lon. 86° 59' W Alt. 51 metri s.l.m.
26 °C
Nuvoloso
Temp. 24 Ore
23 °C
37 °C
Nord
0 Km/h
Dew point 24 °C
Umidità 88 %
Visibilità 10 Km
Il sole sorge alle ore 06:22
Il sole tramonta alle ore 19:13
| Data e Ora | Cielo e Fenomeni | T °C | DP °C | Um. % | Pres. hPa | Vis. km | Vento km/h | |
|---|---|---|---|---|---|---|---|---|
| Oggi h: 22:40 | Nuvoloso | 26 | 24 | 88 | 1017 | 10 | N 0 | |
| Oggi h: 22:20 | Sereno | 26 | 23 | 83 | 1017 | 10 | N 0 | |
| Oggi h: 22:00 | Sereno | 27 | 23 | 78 | 1017 | 10 | N 0 | |
| Oggi h: 21:40 | Sereno | 26 | 23 | 83 | 1017 | 10 | N 0 | |
| Oggi h: 21:20 | Sereno | 27 | 23 | 78 | 1017 | 10 | N 5.5 | |
| Oggi h: 21:00 | Sereno | 28 | 23 | 74 | 1017 | 10 | N 0 | |
| Oggi h: 20:40 | Sereno | 28 | 23 | 74 | 1017 | 10 | N 0 | |
| Oggi h: 20:20 | Sereno | 28 | 23 | 74 | 1016 | 10 | N 5.5 | |
| Oggi h: 20:00 | Sereno | 29 | 23 | 70 | 1016 | 10 | N 0 | |
| Oggi h: 19:40 | Sereno | 31 | 22 | 58 | 1016 | 10 | N 0 | |
| Oggi h: 19:20 | Sereno | 33 | 21 | 49 | 1016 | 10 | N 0 | |
| Oggi h: 19:00 | Sereno | 34 | 20 | 43 | 1016 | 10 | E 7.4 | |
| Oggi h: 18:40 | Sereno | 35 | 20 | 41 | 1016 | 10 | N 5.5 | |
| Oggi h: 18:20 | Sereno | 35 | 20 | 41 | 1016 | 10 | SE 11.1 | |
| Oggi h: 18:00 | Sereno | 35 | 20 | 41 | 1016 | 10 | E/SE 11.1 | |
| Oggi h: 17:40 | Sereno | 35 | 20 | 41 | 1016 | 10 | E 7.4 | |
| Oggi h: 17:20 | Poco Nuvoloso | 36 | 20 | 39 | 1016 | 10 | E 11.1 | |
| Oggi h: 17:00 | Sereno | 36 | 20 | 39 | 1016 | 10 | E/SE 14.8 | |
| Oggi h: 16:40 | Sereno | 36 | 20 | 39 | 1016 | 10 | E 14.8 | |
| Oggi h: 16:20 | Poco Nuvoloso | 36 | 20 | 39 | 1016 | 10 | N 9.3 | |
| Oggi h: 16:00 | Poco Nuvoloso | 35 | 20 | 41 | 1016 | 10 | NE 11.1 | |
| Oggi h: 15:40 | Molto Nuvoloso | 35 | 20 | 41 | 1017 | 10 | NE 16.7 | |
| Oggi h: 15:20 | Nuvoloso | 36 | 20 | 39 | 1017 | 10 | SE 18.5 | |
| Oggi h: 15:00 | Sereno | 37 | 20 | 37 | 1017 | 10 | SE 13 | |
| Oggi h: 14:40 | Sereno | 36 | 20 | 39 | 1017 | 10 | E/SE 13 | |
| Oggi h: 14:20 | Poco Nuvoloso | 36 | 21 | 41 | 1017 | 10 | N 5.5 | |
| Oggi h: 14:00 | Sereno | 35 | 21 | 44 | 1018 | 10 | E/SE 13 | |
| Oggi h: 13:30 | Nuvoloso | 34 | 21 | 46 | 1018 | 10 | E/NE 13 | |
| Oggi h: 13:20 | Nuvoloso | 33 | 21 | 49 | 1018 | 10 | NE 13 | |
| Oggi h: 13:00 | Nuvoloso | 33 | 22 | 52 | 1018 | 10 | NE 11.1 | |
| Oggi h: 12:40 | Nuvoloso | 34 | 22 | 49 | 1019 | 10 | E 13 | |
| Oggi h: 12:20 | Sereno | 34 | 22 | 49 | 1019 | 10 | N 7.4 | |
| Oggi h: 12:00 | Sereno | 34 | 22 | 49 | 1019 | 10 | E/NE 16.7 | |
| Oggi h: 11:40 | Sereno | 33 | 22 | 52 | 1019 | 10 | E/NE 14.8 | |
| Oggi h: 11:20 | Poco Nuvoloso | 32 | 23 | 59 | 1019 | 10 | E/NE 16.7 | |
| Oggi h: 11:00 | Sereno | 32 | 23 | 59 | 1020 | 10 | E 16.7 | |
| Oggi h: 10:40 | Sereno | 32 | 24 | 62 | 1020 | 10 | E 13 | |
| Oggi h: 10:20 | Sereno | 31 | 24 | 66 | 1020 | 10 | SE 13 | |
| Oggi h: 10:00 | Sereno | 31 | 24 | 66 | 1020 | 10 | E/SE 13 | |
| Oggi h: 09:40 | Sereno | 30 | 25 | 74 | 1020 | 10 | E/NE 13 | |
| Oggi h: 09:15 | Sereno | 29 | 25 | 79 | 1020 | 10 | E 9.3 | |
| Oggi h: 09:00 | Sereno | 29 | 25 | 79 | 1020 | 10 | N 9.3 | |
| Oggi h: 08:40 | Sereno | 28 | 25 | 83 | 1020 | 10 | N 9.3 | |
| Oggi h: 08:20 | Sereno | 27 | 25 | 88 | 1020 | 10 | E 11.1 | |
| Oggi h: 08:00 | Sereno | 26 | 25 | 94 | 1019 | 10 | E/NE 9.3 | |
| Oggi h: 07:40 | Sereno | 25 | 25 | 100 | 1019 | 10 | N 5.5 | |
| Oggi h: 07:20 | Sereno | 24 | 24 | 100 | 1019 | 10 | N 0 | |
| Oggi h: 07:00 | Sereno | 24 | 24 | 100 | 1019 | 10 | E/SE 7.4 | |
| Oggi h: 06:40 | Sereno | 24 | 24 | 100 | 1019 | 10 | N 0 | |
| Oggi h: 06:20 | Sereno | 24 | 24 | 100 | 1018 | 10 | N 0 | |
| Oggi h: 06:00 | Sereno | 24 | 24 | 100 | 1018 | 10 | E 9.3 | |
| Oggi h: 05:35 | Sereno | 24 | 24 | 100 | 1018 | 10 | E/NE 9.3 | |
| Oggi h: 05:20 | Sereno | 24 | 24 | 100 | 1018 | 10 | E 9.3 | |
| Oggi h: 05:00 | Sereno | 24 | 24 | 100 | 1018 | 10 | N 5.5 | |
| Oggi h: 04:40 | Sereno | 24 | 24 | 100 | 1018 | 10 | N 0 | |
| Oggi h: 04:15 | Sereno | 23 | 23 | 100 | 1018 | 10 | N 5.5 | |
| Oggi h: 04:00 | Sereno | 23 | 23 | 100 | 1017 | 10 | N 0 | |
| Oggi h: 03:35 | Sereno | 23 | 23 | 100 | 1017 | 10 | N 0 | |
| Oggi h: 03:20 | Sereno | 23 | 23 | 100 | 1017 | 10 | N 0 | |
| Oggi h: 03:00 | Sereno | 23 | 23 | 100 | 1017 | 10 | N 0 | |
| Oggi h: 02:40 | Sereno | 23 | 23 | 100 | 1017 | 10 | N 0 | |
| Oggi h: 02:20 | Sereno | 23 | 23 | 100 | 1017 | 10 | N 0 | |
| Oggi h: 01:55 | Sereno | 24 | 23 | 94 | 1018 | 10 | N 0 | |
| Oggi h: 01:40 | Sereno | 25 | 23 | 88 | 1018 | 10 | N 0 | |
| Oggi h: 01:20 | Sereno | 25 | 24 | 94 | 1018 | 10 | N 0 | |
| Oggi h: 01:00 | Sereno | 25 | 24 | 94 | 1018 | 10 | N 0 | |
| Oggi h: 00:40 | Poco Nuvoloso | 25 | 24 | 94 | 1018 | 10 | N 0 | |
| Oggi h: 00:20 | Nuvoloso | 25 | 24 | 94 | 1018 | 10 | N 5.5 | |
| Oggi h: 00:00 | Sereno | 25 | 24 | 94 | 1018 | 10 | N 5.5 | |
| Ieri h: 23:40 | Sereno | 25 | 24 | 94 | 1017 | 10 | N 0 | |
| Ieri h: 23:20 | Sereno | 25 | 24 | 94 | 1017 | 10 | N 5.5 | |
| Ieri h: 23:00 | Sereno | 25 | 24 | 94 | 1017 | 10 | N 5.5 | |
| Ieri h: 22:40 | Sereno | 25 | 24 | 94 | 1017 | 10 | N 0 | |



